Location: Banksville Park
(38.5557°N, 75.1182°W)
Time: 01:15:15
(UTC+00:00)

NOSS 3-2 (C) - Pass Details

Date: 19 September 2020
Orbit: 795 x 1418 km, 63.4° (Epoch: 25 October)

Event Time Altitude Azimuth Distance (km) Brightness Sun altitude
Rises 01:58:30 0° 326° (NW) 4,042 7.6 -33.2°
Reaches altitude 10° 02:01:05 10° 327° (NNW) 3,158 6.9 -33.7°
Enters shadow 02:08:33 84° 335° (NNW) 1,332 4.0 -34.9°
